When you browse on this site, cookies collect data to enhance your experience and personalize the content and advertising you see.
Visit our Privacy Policy to learn more. By continuing to use the site, you agree to this use of cookies and data.

Meteo pe oră la Ondjiwa

Astăzi, 10 Iulie, Vineri

Timp Temperatura Precipitaţii Vânt Presiune Umiditate
00:00 +14°C° 0 mm 1 m/s 666 mmHg 22%
01:00 +13°C° 0 mm 1 m/s 666 mmHg 24%
02:00 +12°C° 0 mm 1 m/s 666 mmHg 25%
03:00 +11°C° 0 mm 1 m/s 666 mmHg 27%
04:00 +10°C° 0 mm 1 m/s 665 mmHg 28%
05:00 +10°C° 0 mm 1 m/s 666 mmHg 28%
06:00 +10°C° 0 mm 1 m/s 666 mmHg 29%
07:00 +11°C° 0 mm 1 m/s 666 mmHg 29%
08:00 +15°C° 0 mm 1 m/s 667 mmHg 25%
09:00 +20°C° 0 mm 1 m/s 669 mmHg 20%
10:00 +24°C° 0 mm 1 m/s 670 mmHg 16%
11:00 +26°C° 0 mm 2 m/s 669 mmHg 15%
12:00 +28°C° 0 mm 3 m/s 669 mmHg 14%
13:00 +30°C° 0 mm 3 m/s 669 mmHg 12%
14:00 +30°C° 0 mm 3 m/s 668 mmHg 12%
15:00 +31°C° 0 mm 3 m/s 668 mmHg 12%
16:00 +31°C° 0 mm 3 m/s 667 mmHg 12%
17:00 +27°C° 0 mm 3 m/s 667 mmHg 16%
18:00 +24°C° 0 mm 2 m/s 666 mmHg 19%
19:00 +19°C° 0 mm 2 m/s 666 mmHg 23%
20:00 +18°C° 0 mm 2 m/s 666 mmHg 24%
21:00 +17°C° 0 mm 2 m/s 667 mmHg 26%
22:00 +16°C° 0 mm 3 m/s 667 mmHg 27%
23:00 +14°C° 0 mm 2 m/s 667 mmHg 29%

Mâine, 11 Iulie, Sâmbătă

Timp Temperatura Precipitaţii Vânt Presiune Umiditate
00:00 +12°C° 0 mm 2 m/s 666 mmHg 32%
01:00 +11°C° 0 mm 1 m/s 666 mmHg 34%
02:00 +10°C° 0 mm 1 m/s 666 mmHg 37%
03:00 +9°C° 0 mm 1 m/s 666 mmHg 41%
04:00 +9°C° 0 mm 1 m/s 666 mmHg 44%
05:00 +8°C° 0 mm 2 m/s 667 mmHg 48%
06:00 +7°C° 0 mm 2 m/s 667 mmHg 51%
07:00 +7°C° 0 mm 2 m/s 668 mmHg 55%
08:00 +13°C° 0 mm 2 m/s 669 mmHg 44%
09:00 +18°C° 0 mm 1 m/s 670 mmHg 32%
10:00 +23°C° 0 mm 1 m/s 671 mmHg 21%
11:00 +26°C° 0 mm 1 m/s 671 mmHg 18%
12:00 +27°C° 0 mm 0 m/s 670 mmHg 15%
13:00 +30°C° 0 mm 0 m/s 670 mmHg 11%
14:00 +29°C° 0 mm 0 m/s 670 mmHg 12%
15:00 +29°C° 0 mm 0 m/s 669 mmHg 12%
16:00 +28°C° 0 mm 0 m/s 669 mmHg 13%
17:00 +27°C° 0 mm 1 m/s 668 mmHg 16%
18:00 +24°C° 0 mm 2 m/s 667 mmHg 19%
19:00 +19°C° 0 mm 2 m/s 667 mmHg 23%
20:00 +18°C° 0 mm 3 m/s 667 mmHg 23%
21:00 +17°C° 0 mm 3 m/s 667 mmHg 24%
22:00 +17°C° 0 mm 3 m/s 668 mmHg 24%
23:00 +16°C° 0 mm 3 m/s 668 mmHg 24%

Poimâine, 12 Iulie, Duminică

Timp Temperatura Precipitaţii Vânt Presiune Umiditate
00:00 +14°C° 0 mm 3 m/s 668 mmHg 23%
01:00 +14°C° 0 mm 3 m/s 668 mmHg 23%
02:00 +13°C° 0 mm 3 m/s 668 mmHg 24%
03:00 +12°C° 0 mm 3 m/s 668 mmHg 25%
04:00 +11°C° 0 mm 3 m/s 668 mmHg 27%
05:00 +10°C° 0 mm 3 m/s 668 mmHg 30%
06:00 +10°C° 0 mm 3 m/s 668 mmHg 33%
07:00 +9°C° 0 mm 2 m/s 669 mmHg 37%
08:00 +13°C° 0 mm 3 m/s 670 mmHg 31%
09:00 +18°C° 0 mm 3 m/s 671 mmHg 26%
10:00 +22°C° 0 mm 4 m/s 671 mmHg 20%
11:00 +26°C° 0 mm 4 m/s 671 mmHg 17%
12:00 +28°C° 0 mm 3 m/s 671 mmHg 15%
13:00 +31°C° 0 mm 3 m/s 671 mmHg 12%
14:00 +31°C° 0 mm 3 m/s 670 mmHg 11%
15:00 +32°C° 0 mm 2 m/s 670 mmHg 11%
16:00 +32°C° 0 mm 2 m/s 669 mmHg 11%
17:00 +28°C° 0 mm 2 m/s 669 mmHg 14%
18:00 +25°C° 0 mm 2 m/s 668 mmHg 17%
19:00 +20°C° 0 mm 2 m/s 668 mmHg 20%
20:00 +19°C° 0 mm 2 m/s 668 mmHg 22%
21:00 +18°C° 0 mm 2 m/s 668 mmHg 24%
22:00 +17°C° 0 mm 2 m/s 668 mmHg 25%
23:00 +16°C° 0 mm 2 m/s 668 mmHg 26%

13 Iulie, Luni

Timp Temperatura Precipitaţii Vânt Presiune Umiditate
00:00 +15°C° 0 mm 2 m/s 668 mmHg 28%
01:00 +14°C° 0 mm 2 m/s 668 mmHg 29%
02:00 +13°C° 0 mm 2 m/s 667 mmHg 30%
03:00 +13°C° 0 mm 2 m/s 667 mmHg 32%
04:00 +12°C° 0 mm 2 m/s 667 mmHg 33%
05:00 +10°C° 0 mm 2 m/s 667 mmHg 34%
06:00 +10°C° 0 mm 2 m/s 668 mmHg 34%
07:00 +10°C° 0 mm 2 m/s 668 mmHg 35%
08:00 +15°C° 0 mm 2 m/s 669 mmHg 29%
09:00 +19°C° 0 mm 2 m/s 670 mmHg 22%
10:00 +25°C° 0 mm 3 m/s 671 mmHg 16%
11:00 +27°C° 0 mm 3 m/s 671 mmHg 14%
12:00 +29°C° 0 mm 3 m/s 670 mmHg 12%
13:00 +31°C° 0 mm 3 m/s 670 mmHg 10%
14:00 +31°C° 0 mm 3 m/s 670 mmHg 10%
15:00 +31°C° 0 mm 3 m/s 669 mmHg 9%
16:00 +31°C° 0 mm 3 m/s 669 mmHg 9%
17:00 +28°C° 0 mm 3 m/s 668 mmHg 12%
18:00 +24°C° 0 mm 3 m/s 668 mmHg 15%
19:00 +20°C° 0 mm 3 m/s 667 mmHg 18%
20:00 +19°C° 0 mm 3 m/s 667 mmHg 18%
21:00 +18°C° 0 mm 3 m/s 668 mmHg 19%
22:00 +17°C° 0 mm 2 m/s 668 mmHg 20%
23:00 +16°C° 0 mm 2 m/s 668 mmHg 20%

14 Iulie, Marţi

Timp Temperatura Precipitaţii Vânt Presiune Umiditate
00:00 +15°C° 0 mm 2 m/s 667 mmHg 21%
01:00 +14°C° 0 mm 2 m/s 667 mmHg 21%
02:00 +13°C° 0 mm 2 m/s 667 mmHg 21%
03:00 +13°C° 0 mm 2 m/s 667 mmHg 22%
04:00 +12°C° 0 mm 2 m/s 667 mmHg 22%
05:00 +10°C° 0 mm 2 m/s 667 mmHg 22%
06:00 +10°C° 0 mm 2 m/s 667 mmHg 22%
07:00 +9°C° 0 mm 2 m/s 668 mmHg 22%
08:00 +14°C° 0 mm 2 m/s 669 mmHg 18%
09:00 +19°C° 0 mm 2 m/s 670 mmHg 13%
10:00 +24°C° 0 mm 3 m/s 671 mmHg 9%
11:00 +26°C° 0 mm 3 m/s 670 mmHg 8%
12:00 +29°C° 0 mm 4 m/s 670 mmHg 7%
13:00 +32°C° 0 mm 4 m/s 670 mmHg 6%
14:00 +32°C° 0 mm 4 m/s 669 mmHg 6%
15:00 +32°C° 0 mm 4 m/s 669 mmHg 6%
16:00 +32°C° 0 mm 4 m/s 668 mmHg 6%
17:00 +27°C° 0 mm 3 m/s 668 mmHg 8%
18:00 +24°C° 0 mm 3 m/s 668 mmHg 10%
19:00 +19°C° 0 mm 3 m/s 667 mmHg 12%
20:00 +18°C° 0 mm 3 m/s 668 mmHg 12%
21:00 +17°C° 0 mm 3 m/s 668 mmHg 13%
22:00 +16°C° 0 mm 3 m/s 668 mmHg 14%
23:00 +14°C° 0 mm 4 m/s 668 mmHg 15%

15 Iulie, Miercuri

Timp Temperatura Precipitaţii Vânt Presiune Umiditate
00:00 +14°C° 0 mm 4 m/s 668 mmHg 15%
01:00 +13°C° 0 mm 4 m/s 668 mmHg 16%
02:00 +13°C° 0 mm 4 m/s 669 mmHg 17%
03:00 +12°C° 0 mm 4 m/s 669 mmHg 19%
04:00 +11°C° 0 mm 4 m/s 669 mmHg 20%
05:00 +11°C° 0 mm 4 m/s 669 mmHg 20%
06:00 +10°C° 0 mm 4 m/s 670 mmHg 20%
07:00 +10°C° 0 mm 4 m/s 670 mmHg 21%
08:00 +13°C° 0 mm 5 m/s 671 mmHg 17%
09:00 +17°C° 0 mm 6 m/s 672 mmHg 13%
10:00 +22°C° 0 mm 6 m/s 673 mmHg 10%
11:00 +24°C° 0 mm 6 m/s 673 mmHg 9%
12:00 +27°C° 0 mm 6 m/s 672 mmHg 8%
13:00 +29°C° 0 mm 5 m/s 672 mmHg 7%
14:00 +29°C° 0 mm 5 m/s 671 mmHg 7%
15:00 +30°C° 0 mm 5 m/s 671 mmHg 7%
16:00 +30°C° 0 mm 4 m/s 670 mmHg 6%
17:00 +26°C° 0 mm 4 m/s 670 mmHg 9%
18:00 +22°C° 0 mm 3 m/s 670 mmHg 11%
19:00 +18°C° 0 mm 3 m/s 670 mmHg 13%
20:00 +17°C° 0 mm 3 m/s 670 mmHg 14%
21:00 +16°C° 0 mm 3 m/s 670 mmHg 16%
22:00 +14°C° 0 mm 3 m/s 670 mmHg 17%
23:00 +13°C° 0 mm 3 m/s 670 mmHg 17%
Arată mai mult